7 * 24
多渠道服务支持
GOES 5是美国NASA主导开发的对地静止环境业务卫星(GOES)系列的第五颗气象卫星,于1981年5月22日发射入轨。作为该系列第一代业务卫星,它运行在地球静止轨道,长期承担北美及周边区域的气象观测、大气环境监测任务,为天气预报、灾害预警提供连续观测数据,支撑了GOES卫星网络的业务化运行,后续因部件老化退役,是美国早期静止气象卫星体系的重要组成部分。
美国
(US)
| 数据来源 | 国际轨道数据 |
| 星历时间: | 2026-06-11T20:42:41+0800 13小时前 查看轨道信息 |
| 半长轴: | 42183.325km |
| 偏心率: | 0.0002815 |
| 轨道倾角: | 9.369° |
| 近地点辐角 | 339.034° |
| 升交点赤经 | 315.735° |
| 平近点角 | 43.562° |
| 近地点: | 35793.313km |
| 远地点: | 35817.063km |
| 周期: | 1437.047分钟 |
| 每日圈数: | 1.002055 |